Location: Unspecified
(40.7945°N, 111.1337°W)
Time: 18:26:01
(UTC-06:00)

ISS - Pass Details

Date: 22 March 2019
Orbit: 408 x 410 km, 51.6° (Epoch: 21 April)

Event Time Altitude Azimuth Distance (km) Brightness Sun altitude
Rises 20:12:42 0° 216° (SW) 2,315 0.4 -7.2°
Reaches altitude 10° 20:14:50 10° 209° (SSW) 1,458 -0.7 -7.6°
Maximum altitude 20:17:55 40° 138° (SE) 607 -3.3 -8.2°
Drops below altitude 10° 20:21:02 10° 66° (ENE) 1,466 -1.5 -8.8°
Enters shadow 20:21:20 - 65° (ENE) 1,580 -1.3 -8.9°
